星链-37751(STARLINK-37751)

导读

STARLINK-37751(NORAD 100491)是SpaceX星链(Starlink)低轨互联网星座的组成卫星,2025年由猎鹰9号火箭发射,执行任务的一级助推器B1090-4发射后成功降落在大西洋回收船“缺乏庄重”号上。该卫星设计寿命约5年,运行在约550公里高度的近地轨道,搭载星间激光链路与相控阵天线,可提供超1Gbps的高速互联网传输,为偏远、海洋、航空等区域提供通信覆盖,也可作为灾备通信链路,但同时其在轨运行也对光学和射电天文观测存在潜在干扰。

基本信息
目录编号:
100491
目录名称:
STARLINK-37751
国际标识:
2026-196U
轨道中心:
EARTH
卫星名称:
星链-37751
卫星全名:
星链-37751(STARLINK-37751)
卫星状态:
在轨 (已飞行11 天)
发射日期:
2026-08-25 UTC
国别 :
美国 (US)
星等 :
--
轨道信息
数据来源 国际轨道数据
星历时间: 2026-09-05T00:10:31+0800
14小时前
查看轨道信息
半长轴: 6671.992km
偏心率: 0.0000548
轨道倾角: 53.159°
近地点辐角 37.604°
升交点赤经 320.949°
平近点角 322.503°
近地点: 293.489km
远地点: 294.221km
周期: 90.395分钟
每日圈数: 15.930139
详细信息
固有亮度:
5
最大亮度:
2.5
卫星平台:
Starlink V1.0
覆盖范围:
全球
运营商:
太空探索技术公司
运营商所在国:
美国
制造商(研发单位):
太空探索技术公司
制造商所在国:
美国
使用方式:
暂无
卫星简介
Starlink 计划是 SpaceX 推出的全球卫星互联网项目,通过发射低轨道卫星,为全球尤其是偏远地区提供高速、低延迟的互联网服务。自 2019 年起,Starlink 已部署数千颗卫星,旨在缩小全球数字鸿沟,推动互联网普及。该项目还为军事、航空等行业提供通信支持,带来广泛经济效益。
2D轨道图
3D轨道图
轨道高度分析图
轨道倾角分析图
轨道综合分析图
查看轨道综合分析图